Regional Weather Roundup
Issued by NWS Austin/San Antonio, TX

Current Version | Previous Version | Text Only | Print | Product List | Glossary Off
Versions: 1 2 3 4 5 6 7 8 9 10 11 12 13 14 15 16 17 18 19 20 21 22 23 24 25 26 27 28 29 30 31 32 33 34 35 36 37 38 39 40 41 42 43 44 45 46 47 48 49 50

000
ASUS44 KEWX 131710
RWREWX
SOUTH TEXAS REGIONAL WEATHER ROUNDUP
NATIONAL WEATHER SERVICE AUSTIN/SAN ANTONIO TX
1200 PM CDT SUN JUN 13 2021

NOTE: "FAIR" INDICATED FEW OR NO CLOUDS BELOW 12,000 FEET WITH NO
SIGNIFICANT WEATHER AND/OR OBSTRUCTIONS TO VISIBILITY.

* - THESE STATIONS ARE NOT NWS OR FAA STATIONS...AND ARE NOT SUBJECT
    TO NWS AND FAA QUALITY CONTROL.

TXZ171-172-183>190-131800-
TEXAS HILL COUNTRY AND EDWARDS PLATEAU

CITY           SKY/WX    TMP DP  RH WIND       PRES   REMARKS
JUNCTION       SUNNY     90  69  50 CALM      30.08S HX  94
*LLANO         SUNNY     86  70  58 CALM      30.05S HX  90
BURNET         PTSUNNY   86  71  60 CALM      30.07S HX  91
*HORSESHOE BAY SUNNY     88  69  53 CALM      30.06S HX  93
*LAGO VISTA    SUNNY     90  69  48 S3        30.06S HX  94
*KERRVILLE     SUNNY     85  73  66 CALM      30.08S HX  92
*FREDERICKSBRG SUNNY     85  65  51 CALM      30.08F
*ROCKSPRINGS     N/A     86  66  51 MISG      30.15S
*BOERNE        SUNNY     88  70  55 N3        30.06F HX  92
*CASTROVILLE   SUNNY     87  71  57 CALM      30.05S HX  92
HONDO          SUNNY     87  72  60 E3        30.04S HX  93
*UVALDE        SUNNY     85  74  69 NE3       30.06S HX  91
DEL RIO        SUNNY     92  71  50 CALM      30.02S HX  98
*LAUGHLIN AFB  SUNNY     90  69  49 SE6       30.02F HX  94
*SPOFFORD      SUNNY     89  69  51 SE6       29.97F HX  93
*EAGLE PASS    SUNNY     90  68  48 VRB6      30.01F HX  93
CARRIZO SPRGS  SUNNY    N/A N/A N/A E7        30.00S
$$

TXZ173-191>194-202-209-217>225-228-131800-
CENTRAL AND SOUTH CENTRAL TEXAS

CITY           SKY/WX    TMP DP  RH WIND       PRES   REMARKS
GEORGETOWN     SUNNY     90  72  55 S7        30.04S HX  97
*TAYLOR        MOSUNNY   93  74  54 NW6       30.01F HX 104
AUSTIN/BERGSTM MOSUNNY   89  72  56 CALM      30.01S HX  96
AUSTIN/MABRY   SUNNY     92  71  50 CALM      30.03F HX  98
*PFLUGERVILLE  SUNNY     90  72  55 CALM      30.01S HX  96
SAN MARCOS     SUNNY     89  74  60 VRB5      30.02F HX  98
NEW BRAUNFELS  SUNNY     89  74  60 SW5       30.01F HX  98
*RANDOLPH AFB  SUNNY     86  72  61 SW3       30.01F HX  92
*SEGUIN        SUNNY     84  73  68 CALM      30.05F HX  90
SAN ANTONIO    MOSUNNY   86  71  60 CALM      30.03F HX  91
STINSON FIELD  SUNNY     89  72  56 SW6       30.00F HX  96
*KELLY FIELD   SUNNY     85  74  68 CALM      30.02F HX  93
*PLEASANTON    SUNNY     88  73  59 W3        30.02F HX  95
*KENEDY        MOSUNNY   87  73  62 NW6       30.01F HX  94
*LA GRANGE     SUNNY     90  75  61 CALM      29.98F HX 101
*GIDDINGS      SUNNY     89  73  59 CALM      30.01S HX  96
*GONZALES      MOSUNNY   87  75  68 W5        30.01F HX  96
$$

TXZ163>164-176>182-195>201-210>213-226-227-235-131800-
SOUTHEAST TEXAS

CITY           SKY/WX    TMP DP  RH WIND       PRES   REMARKS
COLLEGE STN    MOSUNNY   91  75  59 VRB3      29.98F HX 101
*BRYAN         MOSUNNY   89  76  66 NW6       30.00F HX  99
*CALDWELL      MOSUNNY   91  75  60 CALM      30.00F HX 101
*CROCKETT      PTSUNNY   90  77  66 CALM      29.98F HX 102
*BRENHAM       PTSUNNY   91  78  64 NW8       30.00S HX 105
HUNTSVILLE     MOSUNNY   92  80  68 N5        30.00R HX 110
CONROE         MOSUNNY   92  76  59 NW6       29.99S HX 104
HOUSTON BUSH   MOSUNNY   93  74  53 N7        29.97S HX 103
HOUSTON HOBBY  MOSUNNY   93  73  52 VRB5      29.96S HX 102
*HOUSTON SW AP SUNNY     91  76  61 CALM      29.98S HX 103
PEARLAND       SUNNY     91  74  57 W6        29.98S HX 100
HOUSTON HOOKS  MOSUNNY   92  75  57 NW5       29.98S HX 103
ELLINGTON FLD  MOSUNNY   90  75  62 CALM      29.96S HX 100
SUGAR LAND     SUNNY     93  75  55 VRB6      29.97S HX 104
*HOUSTON EXEC  SUNNY     91  77  62 VRB6      29.99S HX 105
*CLEVELAND MUN PTSUNNY   92  74  57 NW3       29.99R HX 102
*WHARTON       MOSUNNY   87  71  59 W3        30.00S HX  92
*COLUMBUS      FAIR      88  74  63 CALM      30.00S HX  97
*EAGLE LAKE    SUNNY     90  73  57 NE3       29.99S HX  98
$$

TXZ214>216-236>238-131800-
THE UPPER TEXAS COAST

CITY           SKY/WX    TMP DP  RH WIND       PRES   REMARKS
*ORANGE        SUNNY     92  74  55 N6        29.97S HX 102
PORT ARTHUR    SUNNY     91  78  65 W8        29.95S HX 106
GALVESTON      MOSUNNY   91  74  57 VRB3      29.97F HX 100
ANGLETON       SUNNY     88  73  61 CALM      29.98S HX  95
*BAY CITY      NOT AVBL
PALACIOS       MOSUNNY   85  77  77 W6        29.98F HX  95
$$

TXZ229>234-239>247-131800-
TEXAS COASTAL BEND AND RIO GRANDE PLAINS

CITY           SKY/WX    TMP DP  RH WIND       PRES   REMARKS
VICTORIA       MOSUNNY   86  75  69 VRB5      30.00S HX  95
*BEEVILLE      MOSUNNY   88  79  75 CALM      30.00S HX 103
ROCKPORT       SUNNY     88  74  63 NW6       29.97F HX  96
*PORT ARANSAS  MOSUNNY   85  75  72 SE8       30.00S HX  93
*PORT LAVACA   MOSUNNY   85  75  71 W5        29.99F HX  94
*INGLESIDE     MOSUNNY   89  76  64 SE6       29.97F HX 100
CORPUS CHRISTI MOSUNNY   87  76  69 CALM      29.98F HX  97
CORPUS NAS     SUNNY     89  75  63 NE6       29.98F HX  99
*ROBSTOWN      MOSUNNY   90  77  64 SE6       29.99F HX 102
ALICE          SUNNY     88  72  58 VRB5      29.98F HX  94
KINGSVILLE NAS SUNNY     89  75  63 NE5       29.98F HX  99
COTULLA        NOT AVBL
LAREDO         SUNNY     91  70  49 CALM      29.98F HX  96
$$

TXZ248>255-131800-
DEEP SOUTH TEXAS

CITY           SKY/WX    TMP DP  RH WIND       PRES   REMARKS
BROWNSVILLE    CLOUDY    88  73  61 NE10      29.98S HX  95
PORT ISABEL    MOSUNNY   87  74  64 VRB7      29.98S HX  95
HARLINGEN      MOSUNNY   88  77  69 CALM      29.98S HX 100
*HEBBRONVILLE  SUNNY     87  57  35 E5        30.02S
MCALLEN        SUNNY     90  71  53 VRB5      29.99S HX  96
*WESLACO       MOSUNNY   89  73  59 CALM      29.98S HAZE    HX  97
FALFURRIAS     MOSUNNY   85  71  64 SE6       29.98S HX  90
EDINBURG       MOSUNNY   89  75  65 E8        29.99S HX  99
*ZAPATA        SUNNY     95  68  41 S8        29.99F HX  99
$$

TXZ213>215-236>238-242>244-246-247-251-254-255-131800-
CMAN STATIONS

STATION/POSITION TIME  TEMP    WIND        PRES    WAVE
                       AIR SEA DIR/SP/G            HT/PER
                 (UTC) (F)     (DEG/KT/KT) (MB)    (FT/S)
NORTH JETTY/GLS  1630   85 82   CALM  /  2 1014.0
EAGLE POINT      1630   86 86  110/  3/  5 1014.5
MORGANS POINT    1630   87 85  340/  4/  5 1014.9
MISSION/ARANSAS  1600   81     270/  1     1017.0
PORT O`CONNOR    1630   82 87  350/  7/  8 1015.3
PORT ARANSAS     1700   82 84   80/  6/  7 1015.5
MALAQUITE BEACH  1630   85      80/  6/  7   N/A
BAFFIN BAY       1630   83 88   60/  6/  8 1015.2
PORT ISABEL      1630   83 81   50/  7/  9 1016.6
$$



USA.gov is the U.S. government's official web portal to all federal, state and local government web resources and services.